Tracking 29892 objects as of 21-Nov-2024
HD Live streaming from Space Station
objects crossing your sky now

METEOR PRIRODA

Track METEOR PRIRODA now!
10-day predictions
METEOR PRIRODA is classified as:


NORAD ID: 12585
Int'l Code: 1981-065A
Perigee: 421.8 km
Apogee: 431.5 km
Inclination: 97.5 °
Period: 93.0 minutes
Semi major axis: 6797 km
RCS: 4.6163 m2 (large)
Launch date: July 10, 1981
Source: Commonwealth of Independent States (former USSR) (CIS)
Launch site: TYURATAM MISSILE AND SPACE COMPLEX (TTMTR)
Your satellite tracking list
Your tracking list is empty




NASA's NSSDC Master Catalog

Two Line Element Set (TLE):
1 12585U 81065A   24325.52213481  .00032926  00000-0  60711-3 0  9993
2 12585  97.5258   0.2771 0007115 219.6158 140.4574 15.49043717370031
Source of the keplerian elements: AFSPC